Weather History for KHZE - September, 2013

Change the Weather History Date:

Monday, September 23, 2013

  Actual Average (KN60) Record (KN60)
Temperature  
Mean Temperature 62 °F -  
Max Temperature 73 °F 64 °F 83 °F (2011)
Min Temperature 51 °F 39 °F 27 °F (2012)
Degree Days  
Heating Degree Days 3    
Growing Degree Days 12 (Base 50)    
Moisture  
Dew Point 56 °F    
Average Humidity 90    
Maximum Humidity 100    
Minimum Humidity 53    
Precipitation  
Precipitation 0.45 in - - ()
Sea Level Pressure  
Sea Level Pressure 29.61 in    
Wind  
Wind Speed 11 mph (WSW)    
Max Wind Speed 23 mph    
Max Gust Speed 31 mph    
Visibility 9 miles    
Events Rain    
Averages and records for this station are not official NWS values.
T = Trace of Precipitation, MM = Missing Value Source: NWS Daily Summary

Daily Weather History Graph

Daily Weather History Graph

Search for Another Location

Airport or City:

Trip Planner

Search our weather history database for the weather conditions in past years. The results will help you decide how hot, cold, wet, or windy it might be!

Date:

Astronomy

Sep. 23, 2013 Rise Set
Actual Time 7:34 AM CDT 7:41 PM CDT
Civil Twilight 7:04 AM CDT 8:11 PM CDT
Nautical Twilight 6:28 AM CDT 8:47 PM CDT
Astronomical Twilight 5:51 AM CDT 9:24 PM CDT
Moon 9:55 PM CDT 12:14 PM CDT
Length of Visible Light 13h 07m
Length of Day
12h 06m
Waning Gibbous, 81% of the Moon is Illuminated
Sep 23
Waning Gibbous
Sep 26
Last Quarter
Oct 4
New
Oct 11
First Quarter
Oct 18
Full

Hourly Weather History & Observations

Time (CDT) Temp. Dew Point Humidity Pressure Visibility Wind Dir Wind Speed Gust Speed Precip Events Conditions
12:15 AM 73.4 °F 55.4 °F 53% 29.40 in 10.0 mi SSE 23.0 mph 31.1 mph N/A   Clear
12:35 AM 73.4 °F 55.4 °F 53% 29.40 in 10.0 mi South 17.3 mph 29.9 mph N/A   Clear
12:55 AM 71.6 °F 55.4 °F 57% 29.41 in 10.0 mi South 17.3 mph - N/A   Clear
1:15 AM 71.6 °F 55.4 °F 57% 29.42 in 10.0 mi South 16.1 mph 20.7 mph N/A   Clear
1:35 AM 71.6 °F 55.4 °F 57% 29.45 in 10.0 mi South 15.0 mph - N/A   Clear
1:55 AM 66.2 °F 57.2 °F 73% 29.46 in 10.0 mi SW 10.4 mph - N/A   Mostly Cloudy
2:15 AM 62.6 °F 57.2 °F 82% 29.45 in 10.0 mi WNW 9.2 mph - N/A   Scattered Clouds
2:35 AM 62.6 °F 57.2 °F 82% 29.44 in 10.0 mi NW 8.1 mph - N/A   Scattered Clouds
2:55 AM 62.6 °F 57.2 °F 82% 29.44 in 10.0 mi North - - N/A   Partly Cloudy
3:15 AM 62.6 °F 57.2 °F 82% 29.49 in 10.0 mi South 17.3 mph - N/A   Mostly Cloudy
3:35 AM 62.6 °F 57.2 °F 82% 29.49 in 10.0 mi South 12.7 mph - N/A   Mostly Cloudy
3:55 AM 62.6 °F 57.2 °F 82% 29.47 in 7.0 mi North 5.8 mph - N/A Rain Light Rain
4:15 AM 60.8 °F 59.0 °F 94% 29.45 in 10.0 mi WNW 3.5 mph - N/A Rain Light Rain
4:35 AM 60.8 °F 59.0 °F 94% 29.45 in 7.0 mi East 4.6 mph - N/A   Overcast
4:55 AM 59.0 °F 57.2 °F 94% 29.46 in 10.0 mi SSW 5.8 mph - N/A   Partly Cloudy
5:15 AM 59.0 °F 57.2 °F 94% 29.47 in 10.0 mi SSE 5.8 mph - N/A   Mostly Cloudy
5:35 AM 59.0 °F 59.0 °F 100% 29.49 in 10.0 mi Calm Calm - N/A   Mostly Cloudy
5:55 AM 59.0 °F 59.0 °F 100% 29.46 in 10.0 mi North - - N/A   Mostly Cloudy
6:15 AM 59.0 °F 57.2 °F 94% 29.46 in 10.0 mi Calm Calm - N/A   Partly Cloudy
6:35 AM 57.2 °F 57.2 °F 100% 29.47 in 10.0 mi SSW 3.5 mph - N/A   Clear
6:55 AM 57.2 °F 55.4 °F 94% 29.49 in 10.0 mi South 6.9 mph - N/A   Clear
7:15 AM 57.2 °F 57.2 °F 100% 29.51 in 10.0 mi SSW 3.5 mph - N/A   Clear
7:35 AM 57.2 °F 57.2 °F 100% 29.51 in 10.0 mi WSW 3.5 mph - N/A   Clear
7:55 AM 55.4 °F 55.4 °F 100% 29.52 in 10.0 mi Calm Calm - N/A   Clear
8:15 AM 57.2 °F 55.4 °F 94% 29.52 in 10.0 mi Calm Calm - N/A   Clear
8:35 AM 57.2 °F 57.2 °F 100% 29.53 in 10.0 mi WNW 3.5 mph - N/A   Scattered Clouds
8:55 AM 59.0 °F 57.2 °F 94% 29.53 in 10.0 mi West 5.8 mph - N/A   Mostly Cloudy
9:15 AM 59.0 °F 57.2 °F 94% 29.53 in 10.0 mi West 3.5 mph - N/A   Mostly Cloudy
9:35 AM 59.0 °F 57.2 °F 94% 29.54 in 10.0 mi West 6.9 mph - N/A   Mostly Cloudy
9:55 AM 60.8 °F 57.2 °F 88% 29.56 in 10.0 mi West 11.5 mph - N/A   Mostly Cloudy
10:15 AM 60.8 °F 57.2 °F 88% 29.57 in 10.0 mi WNW 12.7 mph 16.1 mph N/A Rain Light Rain
10:35 AM 60.8 °F 57.2 °F 88% 29.57 in 10.0 mi NW 10.4 mph - N/A   Overcast
10:55 AM 60.8 °F 57.2 °F 88% 29.57 in 10.0 mi NW 11.5 mph 16.1 mph N/A   Overcast
11:15 AM 60.8 °F 55.4 °F 82% 29.58 in 10.0 mi NW 15.0 mph 19.6 mph N/A   Overcast
11:35 AM 60.8 °F 57.2 °F 88% 29.58 in 10.0 mi WNW 13.8 mph 21.9 mph N/A   Overcast
11:55 AM 60.8 °F 57.2 °F 88% 29.58 in 10.0 mi NW 15.0 mph - N/A   Overcast
12:15 PM 60.8 °F 57.2 °F 88% 29.59 in 10.0 mi NW 13.8 mph - N/A   Overcast
12:35 PM 59.0 °F 55.4 °F 88% 29.61 in 10.0 mi West 13.8 mph - N/A   Overcast
1:15 PM 59.0 °F 57.2 °F 94% 29.60 in 10.0 mi WNW 13.8 mph 19.6 mph N/A   Overcast
1:35 PM 59.0 °F 55.4 °F 88% 29.60 in 8.0 mi NW 16.1 mph 25.3 mph N/A Rain Light Rain
1:55 PM 59.0 °F 55.4 °F 88% 29.63 in 10.0 mi WNW 13.8 mph 19.6 mph 0.01 in   Overcast
2:15 PM 57.2 °F 55.4 °F 94% 29.64 in 5.0 mi WNW 11.5 mph 18.4 mph 0.07 in Rain Light Rain
2:35 PM 57.2 °F 55.4 °F 94% 29.64 in 5.0 mi NW 10.4 mph 19.6 mph 0.11 in Rain Light Rain
2:55 PM 57.2 °F 55.4 °F 94% 29.65 in 3.0 mi WNW 10.4 mph - 0.15 in Rain Rain
3:15 PM 57.2 °F 55.4 °F 94% 29.67 in 2.0 mi WNW 10.4 mph - 0.06 in Rain Rain
3:35 PM 57.2 °F 55.4 °F 94% 29.68 in 2.0 mi WNW 6.9 mph - 0.14 in Rain Rain
3:55 PM 57.2 °F 55.4 °F 94% 29.69 in 4.0 mi WNW 9.2 mph - 0.17 in Rain Light Rain
4:15 PM 57.2 °F 55.4 °F 94% 29.69 in 5.0 mi WNW 9.2 mph - 0.01 in Rain Light Rain
4:35 PM 57.2 °F 55.4 °F 94% 29.70 in 3.0 mi WNW 10.4 mph - 0.04 in Rain Light Rain
4:55 PM 55.4 °F 53.6 °F 94% 29.70 in 4.0 mi NW 10.4 mph - 0.07 in Rain Light Rain
5:15 PM 55.4 °F 53.6 °F 94% 29.72 in 3.0 mi WNW 5.8 mph - 0.03 in Rain Light Rain
5:35 PM 57.2 °F 55.4 °F 94% 29.72 in 7.0 mi West 4.6 mph - 0.04 in Rain Light Rain
5:55 PM 57.2 °F 53.6 °F 88% 29.74 in 8.0 mi West 3.5 mph - 0.05 in Rain Light Rain
6:15 PM 55.4 °F 53.6 °F 94% 29.74 in 9.0 mi Calm Calm - N/A Rain Light Rain
6:35 PM 57.2 °F 55.4 °F 94% 29.75 in 10.0 mi South 4.6 mph - N/A   Clear
6:55 PM 55.4 °F 55.4 °F 100% 29.75 in 10.0 mi South 5.8 mph - N/A   Clear
7:15 PM 55.4 °F 55.4 °F 100% 29.75 in 10.0 mi SSE 5.8 mph - N/A   Partly Cloudy
7:35 PM 55.4 °F 55.4 °F 100% 29.76 in 10.0 mi SSE 5.8 mph - N/A   Scattered Clouds
7:55 PM 55.4 °F 55.4 °F 100% 29.77 in 10.0 mi South 4.6 mph - N/A   Mostly Cloudy
8:15 PM 55.4 °F 53.6 °F 94% 29.77 in 10.0 mi South 5.8 mph - N/A   Mostly Cloudy
8:35 PM 55.4 °F 53.6 °F 94% 29.78 in 10.0 mi South 6.9 mph - N/A   Mostly Cloudy
8:55 PM 53.6 °F 53.6 °F 100% 29.78 in 10.0 mi South 5.8 mph - N/A   Partly Cloudy
9:15 PM 53.6 °F 53.6 °F 100% 29.79 in 10.0 mi South 8.1 mph - N/A   Clear
9:35 PM 55.4 °F 53.6 °F 94% 29.79 in 10.0 mi South 8.1 mph - N/A   Clear
9:55 PM 53.6 °F 51.8 °F 94% 29.80 in 10.0 mi South 6.9 mph - N/A   Clear
10:15 PM 53.6 °F 51.8 °F 94% 29.80 in 10.0 mi South 6.9 mph - N/A   Clear
10:35 PM 53.6 °F 50.0 °F 88% 29.81 in 10.0 mi South 5.8 mph - N/A   Clear
10:55 PM 53.6 °F 50.0 °F 88% 29.82 in 10.0 mi SSW 3.5 mph - N/A   Clear
11:15 PM 53.6 °F 50.0 °F 88% 29.82 in 10.0 mi SW 3.5 mph - N/A   Clear
11:35 PM 51.8 °F 50.0 °F 94% 29.82 in 10.0 mi North - - N/A   Clear
11:55 PM 51.8 °F 50.0 °F 94% 29.83 in 10.0 mi North - - N/A   Clear